Location: Madrid
(40.4167°N, 3.7036°W)
Time: 14:03:49
(UTC+00:00)

ISS - Pass Details

Date: 16 July 2024
Orbit: 410 x 424 km, 51.6° (Epoch: 14 July)

Event Time Altitude Azimuth Distance (km) Brightness Sun altitude
Rises 20:58:49 0° 291° (WNW) 2,339 1.5 -12.5°
Reaches altitude 10° 21:01:47 10° 320° (NW) 1,478 0.5 -12.9°
Maximum altitude 21:03:28 13° 351° (N) 1,300 -0.5 -13.2°
Drops below altitude 10° 21:05:09 10° 22° (NNE) 1,480 -0.7 -13.4°
Sets 21:08:07 0° 51° (NE) 2,344 0.0 -13.8°
